Time,TemperatureF,DewpointF,PressureIn,WindDirection,WindDirectionDegrees,WindSpeedMPH,WindSpeedGustMPH,Humidity,HourlyPrecipIn,Conditions,Clouds,dailyrainin,SoftwareType,DateUTC
2013-06-09 00:01:00,70.6,70.0,29.91,East,82,0.0,0.0,96,0.00,,,0.00,weatherlink.com 1.10,2013-06-09 05:01:00,
2013-06-09 00:31:00,70.6,70.0,29.90,ENE,66,0.0,0.0,96,0.00,,,0.00,weatherlink.com 1.10,2013-06-09 05:31:00,
2013-06-09 01:01:00,71.0,69.0,29.91,ENE,68,0.0,0.0,94,0.00,,,0.00,weatherlink.com 1.10,2013-06-09 06:01:00,
2013-06-09 01:16:00,70.8,69.0,29.91,ENE,68,0.0,0.0,94,0.00,,,0.00,weatherlink.com 1.10,2013-06-09 06:16:00,
2013-06-09 01:31:00,70.7,69.0,29.91,ENE,68,0.0,0.0,94,0.00,,,0.00,weatherlink.com 1.10,2013-06-09 06:31:00,
2013-06-09 01:46:00,70.8,69.0,29.90,ENE,68,0.0,0.0,94,0.00,,,0.00,weatherlink.com 1.10,2013-06-09 06:46:00,
2013-06-09 02:01:00,70.9,69.0,29.90,ENE,68,0.0,0.0,94,0.00,,,0.00,weatherlink.com 1.10,2013-06-09 07:01:00,
2013-06-09 02:31:00,70.7,69.0,29.90,ENE,68,0.0,0.0,95,0.00,,,0.00,weatherlink.com 1.10,2013-06-09 07:31:00,
2013-06-09 02:46:00,70.6,69.0,29.89,ENE,68,0.0,0.0,95,0.00,,,0.00,weatherlink.com 1.10,2013-06-09 07:46:00,
2013-06-09 03:01:00,70.8,70.0,29.89,ENE,68,0.0,0.0,96,0.00,,,0.00,weatherlink.com 1.10,2013-06-09 08:01:00,
2013-06-09 03:16:00,71.0,70.0,29.89,ENE,68,0.0,0.0,96,0.00,,,0.00,weatherlink.com 1.10,2013-06-09 08:16:00,
2013-06-09 03:31:00,70.9,70.0,29.89,ENE,68,0.0,0.0,96,0.00,,,0.00,weatherlink.com 1.10,2013-06-09 08:31:00,
2013-06-09 03:46:00,70.9,70.0,29.89,ENE,68,0.0,0.0,96,0.00,,,0.00,weatherlink.com 1.10,2013-06-09 08:46:00,
2013-06-09 04:01:00,71.1,70.0,29.90,East,84,0.0,0.0,97,0.00,,,0.00,weatherlink.com 1.10,2013-06-09 09:01:00,
2013-06-09 04:16:00,71.3,70.0,29.89,West,275,0.0,0.0,97,0.00,,,0.00,weatherlink.com 1.10,2013-06-09 09:16:00,
2013-06-09 04:31:00,71.3,70.0,29.89,North,360,0.0,0.0,97,0.00,,,0.00,weatherlink.com 1.10,2013-06-09 09:31:00,
2013-06-09 04:46:00,71.2,70.0,29.88,East,90,0.0,0.0,97,0.00,,,0.00,weatherlink.com 1.10,2013-06-09 09:46:00,
2013-06-09 05:01:00,71.1,70.0,29.89,East,81,0.0,0.0,97,0.00,,,0.00,weatherlink.com 1.10,2013-06-09 10:01:00,
2013-06-09 05:16:00,71.0,70.0,29.89,East,81,0.0,0.0,97,0.00,,,0.00,weatherlink.com 1.10,2013-06-09 10:16:00,
2013-06-09 05:31:00,71.1,70.0,29.90,East,81,0.0,1.0,97,0.00,,,0.00,weatherlink.com 1.10,2013-06-09 10:31:00,
2013-06-09 05:46:00,71.1,70.0,29.89,East,81,0.0,0.0,97,0.00,,,0.00,weatherlink.com 1.10,2013-06-09 10:46:00,
2013-06-09 06:01:00,70.9,70.0,29.89,East,95,2.0,2.0,96,0.00,,,0.00,weatherlink.com 1.10,2013-06-09 11:01:00,
2013-06-09 06:16:00,71.0,70.0,29.89,ENE,73,0.0,3.0,96,0.00,,,0.00,weatherlink.com 1.10,2013-06-09 11:16:00,
2013-06-09 06:31:00,71.2,70.0,29.90,East,97,1.0,3.0,95,0.00,,,0.00,weatherlink.com 1.10,2013-06-09 11:31:00,
2013-06-09 06:46:00,71.5,70.0,29.90,ENE,77,0.0,2.0,95,0.00,,,0.00,weatherlink.com 1.10,2013-06-09 11:46:00,
2013-06-09 07:01:00,71.8,70.0,29.91,ESE,113,3.0,4.0,95,0.00,,,0.00,weatherlink.com 1.10,2013-06-09 12:01:00,
2013-06-09 07:16:00,72.1,70.0,29.90,ESE,105,3.0,4.0,94,0.00,,,0.00,weatherlink.com 1.10,2013-06-09 12:16:00,
2013-06-09 07:31:00,72.4,71.0,29.90,ESE,107,3.0,4.0,94,0.00,,,0.00,weatherlink.com 1.10,2013-06-09 12:31:00,
2013-06-09 07:46:00,72.7,71.0,29.91,ESE,123,2.0,3.0,93,0.00,,,0.00,weatherlink.com 1.10,2013-06-09 12:46:00,
2013-06-09 08:01:00,72.8,71.0,29.91,ESE,119,2.0,5.0,93,0.00,,,0.00,weatherlink.com 1.10,2013-06-09 13:01:00,
2013-06-09 08:16:00,73.0,71.0,29.92,SE,136,3.0,5.0,94,0.00,,,0.00,weatherlink.com 1.10,2013-06-09 13:16:00,
2013-06-09 08:32:00,73.3,71.0,29.92,SE,129,1.0,8.0,93,0.00,,,0.00,weatherlink.com 1.10,2013-06-09 13:32:00,
2013-06-09 08:47:00,73.4,71.0,29.91,SE,126,1.0,7.0,93,0.00,,,0.00,weatherlink.com 1.10,2013-06-09 13:47:00,
2013-06-09 09:02:00,73.6,72.0,29.92,East,97,3.0,5.0,94,0.00,,,0.00,weatherlink.com 1.10,2013-06-09 14:02:00,
2013-06-09 09:17:00,75.0,73.0,29.92,ESE,118,3.0,4.0,93,0.00,,,0.00,weatherlink.com 1.10,2013-06-09 14:17:00,
2013-06-09 09:32:00,76.8,74.0,29.93,East,93,7.0,8.0,90,0.00,,,0.00,weatherlink.com 1.10,2013-06-09 14:32:00,
2013-06-09 09:47:00,76.9,73.0,29.92,South,184,4.0,6.0,87,0.00,,,0.00,weatherlink.com 1.10,2013-06-09 14:47:00,
2013-06-09 10:02:00,77.6,73.0,29.91,SSW,198,1.0,5.0,85,0.00,,,0.00,weatherlink.com 1.10,2013-06-09 15:02:00,
2013-06-09 10:17:00,79.0,74.0,29.91,South,169,3.0,5.0,85,0.00,,,0.00,weatherlink.com 1.10,2013-06-09 15:17:00,
2013-06-09 10:32:00,80.3,74.0,29.91,South,173,3.0,4.0,82,0.00,,,0.00,weatherlink.com 1.10,2013-06-09 15:32:00,
2013-06-09 10:47:00,81.1,76.0,29.91,South,173,3.0,5.0,83,0.00,,,0.00,weatherlink.com 1.10,2013-06-09 15:47:00,
2013-06-09 11:02:00,82.8,76.0,29.91,ESE,123,2.0,7.0,80,0.00,,,0.00,weatherlink.com 1.10,2013-06-09 16:02:00,
2013-06-09 11:17:00,82.8,75.0,29.92,South,171,1.0,5.0,77,0.00,,,0.00,weatherlink.com 1.10,2013-06-09 16:17:00,
2013-06-09 11:32:00,82.6,74.0,29.93,SSE,157,1.0,5.0,76,0.00,,,0.00,weatherlink.com 1.10,2013-06-09 16:32:00,
2013-06-09 11:47:00,82.3,74.0,29.92,SW,217,1.0,3.0,77,0.00,,,0.00,weatherlink.com 1.10,2013-06-09 16:47:00,
2013-06-09 12:02:00,82.1,75.0,29.92,SW,226,1.0,4.0,79,0.00,,,0.00,weatherlink.com 1.10,2013-06-09 17:02:00,
2013-06-09 12:17:00,82.2,76.0,29.91,South,182,2.0,2.0,81,0.00,,,0.00,weatherlink.com 1.10,2013-06-09 17:17:00,
2013-06-09 12:32:00,84.2,78.0,29.90,South,170,1.0,3.0,81,0.00,,,0.00,weatherlink.com 1.10,2013-06-09 17:32:00,
2013-06-09 12:47:00,85.2,78.0,29.90,SE,138,2.0,6.0,78,0.00,,,0.00,weatherlink.com 1.10,2013-06-09 17:47:00,
2013-06-09 13:02:00,85.7,78.0,29.91,SSW,200,0.0,7.0,78,0.00,,,0.00,weatherlink.com 1.10,2013-06-09 18:02:00,
2013-06-09 13:17:00,86.0,76.0,29.89,SW,228,4.0,7.0,72,0.00,,,0.00,weatherlink.com 1.10,2013-06-09 18:17:00,
2013-06-09 13:32:00,86.8,77.0,29.88,South,172,3.0,9.0,72,0.00,,,0.00,weatherlink.com 1.10,2013-06-09 18:32:00,
2013-06-09 13:47:00,87.0,76.0,29.87,South,172,1.0,6.0,70,0.00,,,0.00,weatherlink.com 1.10,2013-06-09 18:47:00,
2013-06-09 14:02:00,87.8,79.0,29.87,SSE,155,3.0,5.0,75,0.00,,,0.00,weatherlink.com 1.10,2013-06-09 19:02:00,
2013-06-09 14:17:00,88.0,76.0,29.87,South,169,4.0,6.0,68,0.00,,,0.00,weatherlink.com 1.10,2013-06-09 19:17:00,
2013-06-09 14:32:00,88.3,76.0,29.87,South,176,5.0,9.0,67,0.00,,,0.00,weatherlink.com 1.10,2013-06-09 19:32:00,
2013-06-09 14:47:00,88.0,77.0,29.87,South,175,2.0,9.0,69,0.00,,,0.00,weatherlink.com 1.10,2013-06-09 19:47:00,
2013-06-09 15:02:00,88.5,76.0,29.87,SSW,194,3.0,8.0,66,0.00,,,0.00,weatherlink.com 1.10,2013-06-09 20:02:00,
2013-06-09 15:17:00,88.5,76.0,29.87,South,180,3.0,8.0,67,0.00,,,0.00,weatherlink.com 1.10,2013-06-09 20:17:00,
2013-06-09 15:32:00,88.2,76.0,29.87,South,170,4.0,8.0,68,0.00,,,0.00,weatherlink.com 1.10,2013-06-09 20:32:00,
2013-06-09 15:47:00,88.1,77.0,29.86,SSE,148,4.0,8.0,70,0.00,,,0.00,weatherlink.com 1.10,2013-06-09 20:47:00,
2013-06-09 16:02:00,87.3,77.0,29.86,South,184,7.0,11.0,71,0.00,,,0.00,weatherlink.com 1.10,2013-06-09 21:02:00,
2013-06-09 16:18:00,84.7,77.0,29.86,SSE,166,4.0,14.0,77,0.00,,,0.00,weatherlink.com 1.10,2013-06-09 21:18:00,
2013-06-09 16:33:00,78.1,73.0,29.86,SW,221,3.0,9.0,83,0.01,,,0.01,weatherlink.com 1.10,2013-06-09 21:33:00,
2013-06-09 16:48:00,77.3,74.0,29.87,WNW,289,3.0,7.0,88,0.01,,,0.01,weatherlink.com 1.10,2013-06-09 21:48:00,
2013-06-09 17:03:00,77.6,73.0,29.87,West,278,2.0,5.0,84,0.01,,,0.01,weatherlink.com 1.10,2013-06-09 22:03:00,
2013-06-09 17:18:00,78.2,73.0,29.88,SW,228,3.0,5.0,84,0.01,,,0.01,weatherlink.com 1.10,2013-06-09 22:18:00,
2013-06-09 17:33:00,78.2,72.0,29.88,WSW,238,6.0,11.0,82,0.00,,,0.01,weatherlink.com 1.10,2013-06-09 22:33:00,
2013-06-09 17:48:00,77.9,72.0,29.88,West,271,2.0,4.0,83,0.00,,,0.01,weatherlink.com 1.10,2013-06-09 22:48:00,
2013-06-09 18:03:00,77.9,73.0,29.90,SW,228,1.0,4.0,84,0.00,,,0.01,weatherlink.com 1.10,2013-06-09 23:03:00,
2013-06-09 18:18:00,77.5,73.0,29.89,WNW,300,0.0,4.0,87,0.00,,,0.01,weatherlink.com 1.10,2013-06-09 23:18:00,
2013-06-09 18:33:00,76.2,73.0,29.89,WNW,282,3.0,5.0,89,0.00,,,0.01,weatherlink.com 1.10,2013-06-09 23:33:00,
2013-06-09 18:48:00,75.2,72.0,29.89,WNW,286,1.0,6.0,90,0.01,,,0.02,weatherlink.com 1.10,2013-06-09 23:48:00,
2013-06-09 19:03:00,74.5,72.0,29.89,SSE,168,0.0,3.0,91,0.01,,,0.02,weatherlink.com 1.10,2013-06-10 00:03:00,
2013-06-09 19:18:00,73.8,71.0,29.89,South,173,0.0,5.0,92,0.02,,,0.03,weatherlink.com 1.10,2013-06-10 00:18:00,
2013-06-09 19:33:00,73.7,72.0,29.87,NE,43,0.0,5.0,93,0.02,,,0.03,weatherlink.com 1.10,2013-06-10 00:33:00,
2013-06-09 19:48:00,73.5,71.0,29.87,East,94,0.0,3.0,93,0.01,,,0.03,weatherlink.com 1.10,2013-06-10 00:48:00,
2013-06-09 20:03:00,73.5,72.0,29.88,SE,143,0.0,1.0,94,0.01,,,0.03,weatherlink.com 1.10,2013-06-10 01:03:00,
2013-06-09 20:18:00,73.6,72.0,29.88,ESE,112,1.0,2.0,94,0.00,,,0.03,weatherlink.com 1.10,2013-06-10 01:18:00,
2013-06-09 20:33:00,73.7,72.0,29.89,ESE,121,0.0,3.0,94,0.00,,,0.03,weatherlink.com 1.10,2013-06-10 01:33:00,
2013-06-09 20:48:00,73.7,72.0,29.90,ESE,121,0.0,0.0,95,0.00,,,0.03,weatherlink.com 1.10,2013-06-10 01:48:00,
2013-06-09 21:03:00,73.5,72.0,29.90,ESE,121,0.0,0.0,95,0.00,,,0.03,weatherlink.com 1.10,2013-06-10 02:03:00,
2013-06-09 21:18:00,73.4,72.0,29.91,ESE,121,0.0,0.0,95,0.00,,,0.03,weatherlink.com 1.10,2013-06-10 02:18:00,
2013-06-09 21:33:00,73.4,72.0,29.91,ESE,121,0.0,0.0,96,0.00,,,0.03,weatherlink.com 1.10,2013-06-10 02:33:00,
2013-06-09 21:48:00,73.2,72.0,29.91,ESE,121,0.0,0.0,96,0.00,,,0.03,weatherlink.com 1.10,2013-06-10 02:48:00,
2013-06-09 22:03:00,73.2,72.0,29.91,ESE,121,0.0,0.0,96,0.00,,,0.03,weatherlink.com 1.10,2013-06-10 03:03:00,
2013-06-09 22:18:00,73.1,72.0,29.91,ESE,121,0.0,0.0,96,0.00,,,0.03,weatherlink.com 1.10,2013-06-10 03:18:00,
2013-06-09 22:33:00,73.0,72.0,29.91,ESE,121,0.0,0.0,97,0.00,,,0.03,weatherlink.com 1.10,2013-06-10 03:33:00,
2013-06-09 22:48:00,72.8,72.0,29.91,ESE,121,0.0,0.0,96,0.00,,,0.03,weatherlink.com 1.10,2013-06-10 03:48:00,
2013-06-09 23:03:00,72.8,72.0,29.91,ESE,121,0.0,0.0,97,0.00,,,0.03,weatherlink.com 1.10,2013-06-10 04:03:00,
2013-06-09 23:18:00,72.8,72.0,29.92,ESE,121,0.0,0.0,97,0.00,,,0.03,weatherlink.com 1.10,2013-06-10 04:18:00,
2013-06-09 23:33:00,72.6,72.0,29.93,ESE,121,0.0,0.0,97,0.00,,,0.03,weatherlink.com 1.10,2013-06-10 04:33:00,
2013-06-09 23:48:00,72.5,72.0,29.94,ESE,121,0.0,0.0,97,0.00,,,0.03,weatherlink.com 1.10,2013-06-10 04:48:00,